Time,TemperatureF,DewpointF,PressureIn,WindDirection,WindDirectionDegrees,WindSpeedMPH,WindSpeedGustMPH,Humidity,HourlyPrecipIn,Conditions,Clouds,dailyrainin,SoftwareType,DateUTC
2013-04-13 00:00:00,37.9,33.2,29.91,SW,215,2.0,10.0,83,0.00,,---,0.53,VWS V14.00,2013-04-13 04:00:00,
2013-04-13 00:04:00,38.0,33.3,29.90,SW,230,4.0,7.0,83,0.00,,---,0.00,VWS V14.00,2013-04-13 04:04:00,
2013-04-13 00:12:00,37.9,33.5,29.91,SW,229,2.0,9.0,84,0.00,,---,0.00,VWS V14.00,2013-04-13 04:12:00,
2013-04-13 00:20:00,37.9,33.5,29.91,WSW,252,4.0,10.0,84,0.00,,---,0.00,VWS V14.00,2013-04-13 04:20:00,
2013-04-13 00:28:00,38.0,33.3,29.91,SW,229,5.0,13.0,83,0.00,,---,0.00,VWS V14.00,2013-04-13 04:28:00,
2013-04-13 00:30:00,37.9,33.5,29.91,SW,234,8.0,13.0,84,0.00,,---,0.00,VWS V14.00,2013-04-13 04:30:00,
2013-04-13 00:36:00,37.9,33.2,29.91,SW,230,3.0,12.0,83,0.00,,---,0.00,VWS V14.00,2013-04-13 04:36:00,
2013-04-13 00:44:00,37.9,33.2,29.91,WSW,239,3.0,13.0,83,0.00,,---,0.00,VWS V14.00,2013-04-13 04:44:00,
2013-04-13 00:52:00,37.9,33.2,29.91,SW,234,5.0,13.0,83,0.00,,---,0.00,VWS V14.00,2013-04-13 04:52:00,
2013-04-13 01:00:00,38.0,33.3,29.92,SSW,205,6.0,13.0,83,0.00,,---,0.00,VWS V14.00,2013-04-13 05:00:00,
2013-04-13 01:08:00,38.0,33.3,29.91,WSW,257,1.0,9.0,83,0.00,,---,0.00,VWS V14.00,2013-04-13 05:08:00,
2013-04-13 01:16:00,37.9,33.2,29.91,WSW,256,0.0,11.0,83,0.00,,---,0.00,VWS V14.00,2013-04-13 05:16:00,
2013-04-13 01:24:00,37.9,33.2,29.92,WSW,240,4.0,11.0,83,0.00,,---,0.00,VWS V14.00,2013-04-13 05:24:00,
2013-04-13 01:30:00,37.9,33.2,29.92,SW,234,6.0,11.0,83,0.00,,---,0.00,VWS V14.00,2013-04-13 05:30:00,
2013-04-13 01:40:00,37.9,33.2,29.91,West,267,3.0,11.0,83,0.00,,---,0.00,VWS V14.00,2013-04-13 05:40:00,
2013-04-13 01:48:00,37.9,33.2,29.91,SW,232,4.0,12.0,83,0.00,,---,0.00,VWS V14.00,2013-04-13 05:48:00,
2013-04-13 01:56:00,37.9,33.2,29.91,SW,223,5.0,12.0,83,0.00,,---,0.00,VWS V14.00,2013-04-13 05:56:00,
2013-04-13 02:04:00,37.9,33.5,29.91,WSW,253,2.0,9.0,84,0.00,,---,0.00,VWS V14.00,2013-04-13 06:04:00,
2013-04-13 02:12:00,37.9,33.5,29.91,WSW,242,3.0,12.0,84,0.00,,---,0.00,VWS V14.00,2013-04-13 06:12:00,
2013-04-13 02:20:00,37.9,33.5,29.91,SW,218,9.0,13.0,84,0.00,,---,0.00,VWS V14.00,2013-04-13 06:20:00,
2013-04-13 02:28:00,37.9,33.5,29.91,WSW,257,8.0,13.0,84,0.00,,---,0.00,VWS V14.00,2013-04-13 06:28:00,
2013-04-13 02:37:00,37.9,33.5,29.91,SSW,213,5.0,10.0,84,0.00,,---,0.00,VWS V14.00,2013-04-13 06:37:00,
2013-04-13 02:45:00,37.9,33.5,29.91,WSW,255,4.0,10.0,84,0.00,,---,0.00,VWS V14.00,2013-04-13 06:45:00,
2013-04-13 02:53:00,37.8,33.4,29.91,SW,221,4.0,10.0,84,0.00,,---,0.00,VWS V14.00,2013-04-13 06:53:00,
2013-04-13 03:00:00,37.9,33.5,29.90,WSW,242,7.0,13.0,84,0.00,,---,0.00,VWS V14.00,2013-04-13 07:00:00,
2013-04-13 03:09:00,37.9,33.5,29.91,SW,221,3.0,10.0,84,0.00,,---,0.00,VWS V14.00,2013-04-13 07:09:00,
2013-04-13 03:17:00,38.0,33.6,29.90,WNW,289,1.0,10.0,84,0.00,,---,0.00,VWS V14.00,2013-04-13 07:17:00,
2013-04-13 03:25:00,38.0,33.6,29.90,SW,217,6.0,10.0,84,0.00,,---,0.00,VWS V14.00,2013-04-13 07:25:00,
2013-04-13 03:30:00,38.0,33.6,29.90,SW,225,3.0,10.0,84,0.00,,---,0.00,VWS V14.00,2013-04-13 07:30:00,
2013-04-13 03:49:00,38.1,33.7,29.91,West,277,3.0,10.0,84,0.00,,---,0.00,VWS V14.00,2013-04-13 07:49:00,
2013-04-13 03:57:00,38.2,33.8,29.91,WSW,252,4.0,10.0,84,0.00,,---,0.00,VWS V14.00,2013-04-13 07:57:00,
2013-04-13 04:05:00,38.2,33.8,29.91,West,261,5.0,12.0,84,0.00,,---,0.00,VWS V14.00,2013-04-13 08:05:00,
2013-04-13 04:13:00,38.2,33.8,29.91,West,263,4.0,12.0,84,0.00,,---,0.00,VWS V14.00,2013-04-13 08:13:00,
2013-04-13 04:21:00,38.2,34.1,29.91,NW,304,3.0,12.0,85,0.00,,---,0.00,VWS V14.00,2013-04-13 08:21:00,
2013-04-13 04:29:00,38.3,34.2,29.91,SW,235,8.0,12.0,85,0.00,,---,0.00,VWS V14.00,2013-04-13 08:29:00,
2013-04-13 04:38:00,38.3,34.2,29.91,SW,214,3.0,8.0,85,0.00,,---,0.00,VWS V14.00,2013-04-13 08:38:00,
2013-04-13 04:46:00,38.3,34.2,29.91,WNW,301,4.0,11.0,85,0.00,,---,0.00,VWS V14.00,2013-04-13 08:46:00,
2013-04-13 04:54:00,38.4,34.3,29.92,WSW,243,7.0,11.0,85,0.00,,---,0.00,VWS V14.00,2013-04-13 08:54:00,
2013-04-13 05:00:00,38.4,34.3,29.92,SW,231,10.0,12.0,85,0.00,,---,0.00,VWS V14.00,2013-04-13 09:00:00,
2013-04-13 05:10:00,38.5,34.4,29.92,SW,235,3.0,11.0,85,0.00,,---,0.00,VWS V14.00,2013-04-13 09:10:00,
2013-04-13 05:18:00,38.5,34.4,29.92,West,280,2.0,11.0,85,0.00,,---,0.00,VWS V14.00,2013-04-13 09:18:00,
2013-04-13 05:30:00,38.5,34.1,29.92,West,267,1.0,11.0,84,0.00,,---,0.00,VWS V14.00,2013-04-13 09:30:00,
2013-04-13 05:42:00,38.5,34.1,29.92,WSW,242,3.0,12.0,84,0.00,,---,0.00,VWS V14.00,2013-04-13 09:42:00,
2013-04-13 05:50:00,38.6,34.2,29.92,South,186,2.0,12.0,84,0.00,,---,0.00,VWS V14.00,2013-04-13 09:50:00,
2013-04-13 05:58:00,38.6,34.2,29.92,West,276,4.0,12.0,84,0.00,,---,0.00,VWS V14.00,2013-04-13 09:58:00,
2013-04-13 06:14:00,38.7,34.0,29.93,SW,231,3.0,13.0,83,0.00,,---,0.00,VWS V14.00,2013-04-13 10:14:00,
2013-04-13 06:22:00,38.7,34.3,29.92,WSW,242,2.0,13.0,84,0.00,,---,0.00,VWS V14.00,2013-04-13 10:22:00,
2013-04-13 06:30:00,38.7,34.3,29.92,SSW,210,3.0,13.0,84,0.00,,---,0.00,VWS V14.00,2013-04-13 10:30:00,
2013-04-13 06:38:00,38.7,34.0,29.93,WNW,283,4.0,11.0,83,0.00,,---,0.00,VWS V14.00,2013-04-13 10:38:00,
2013-04-13 06:54:00,38.7,34.0,29.94,West,281,5.0,11.0,83,0.00,,---,0.00,VWS V14.00,2013-04-13 10:54:00,
2013-04-13 07:02:00,38.7,34.0,29.93,SW,234,2.0,7.0,83,0.00,,---,0.00,VWS V14.00,2013-04-13 11:02:00,
2013-04-13 07:10:00,38.7,34.0,29.93,West,274,2.0,10.0,83,0.00,,---,0.00,VWS V14.00,2013-04-13 11:10:00,
2013-04-13 07:27:00,38.8,33.8,29.93,SW,221,3.0,10.0,82,0.00,,---,0.00,VWS V14.00,2013-04-13 11:27:00,
2013-04-13 07:35:00,38.8,34.1,29.94,WSW,254,4.0,7.0,83,0.00,,---,0.00,VWS V14.00,2013-04-13 11:35:00,
2013-04-13 07:43:00,38.8,34.1,29.94,WSW,252,1.0,10.0,83,0.00,,---,0.00,VWS V14.00,2013-04-13 11:43:00,
2013-04-13 07:51:00,38.9,33.9,29.94,WSW,254,3.0,10.0,82,0.00,,---,0.00,VWS V14.00,2013-04-13 11:51:00,
2013-04-13 07:59:00,38.9,33.9,29.94,West,264,6.0,10.0,82,0.00,,---,0.00,VWS V14.00,2013-04-13 11:59:00,
2013-04-13 08:07:00,39.1,34.1,29.94,West,267,1.0,8.0,82,0.00,,---,0.00,VWS V14.00,2013-04-13 12:07:00,
2013-04-13 08:15:00,39.1,33.8,29.94,WSW,250,4.0,11.0,81,0.00,,---,0.00,VWS V14.00,2013-04-13 12:15:00,
2013-04-13 08:23:00,39.2,33.9,29.94,WSW,258,5.0,11.0,81,0.00,,---,0.00,VWS V14.00,2013-04-13 12:23:00,
2013-04-13 08:30:00,39.3,34.0,29.94,West,270,5.0,11.0,81,0.00,,---,0.00,VWS V14.00,2013-04-13 12:30:00,
2013-04-13 08:39:00,39.2,34.2,29.94,WSW,253,3.0,6.0,82,0.00,,---,0.00,VWS V14.00,2013-04-13 12:39:00,
2013-04-13 08:47:00,39.2,34.2,29.94,SSW,208,7.0,11.0,82,0.00,,---,0.00,VWS V14.00,2013-04-13 12:47:00,
2013-04-13 08:55:00,38.7,34.3,29.95,West,279,4.0,16.0,84,0.00,,---,0.00,VWS V14.00,2013-04-13 12:55:00,
2013-04-13 09:03:00,37.5,33.7,29.95,SW,232,3.0,8.0,86,0.01,,---,0.01,VWS V14.00,2013-04-13 13:03:00,
2013-04-13 09:27:00,38.0,33.9,29.95,WNW,286,7.0,13.0,85,0.01,,---,0.01,VWS V14.00,2013-04-13 13:27:00,
2013-04-13 09:36:00,38.0,33.6,29.95,WSW,257,5.0,10.0,84,0.01,,---,0.01,VWS V14.00,2013-04-13 13:36:00,
2013-04-13 09:44:00,38.0,33.0,29.95,West,265,13.0,17.0,82,0.01,,---,0.01,VWS V14.00,2013-04-13 13:44:00,
2013-04-13 09:52:00,38.3,33.0,29.96,NW,309,3.0,17.0,81,0.01,,---,0.01,VWS V14.00,2013-04-13 13:52:00,
2013-04-13 10:00:00,38.3,32.4,29.96,WNW,286,8.0,17.0,79,0.01,,---,0.01,VWS V14.00,2013-04-13 14:00:00,
2013-04-13 10:08:00,38.0,31.8,29.96,SW,233,4.0,13.0,78,0.00,,---,0.01,VWS V14.00,2013-04-13 14:08:00,
2013-04-13 10:24:00,37.8,31.2,29.97,WNW,296,5.0,22.0,77,0.00,,---,0.01,VWS V14.00,2013-04-13 14:24:00,
2013-04-13 10:30:00,37.8,30.6,29.97,West,271,7.0,22.0,75,0.00,,---,0.01,VWS V14.00,2013-04-13 14:30:00,
2013-04-13 10:40:00,38.0,30.1,29.97,SW,225,7.0,21.0,73,0.00,,---,0.01,VWS V14.00,2013-04-13 14:40:00,
2013-04-13 10:48:00,38.2,30.3,29.97,SW,224,14.0,21.0,73,0.00,,---,0.01,VWS V14.00,2013-04-13 14:48:00,
2013-04-13 11:00:00,38.6,30.7,29.98,WSW,240,2.0,21.0,73,0.00,,---,0.01,VWS V14.00,2013-04-13 15:00:00,
2013-04-13 11:12:00,39.2,30.2,29.98,WNW,284,6.0,11.0,70,0.00,,---,0.01,VWS V14.00,2013-04-13 15:12:00,
2013-04-13 11:20:00,39.2,30.2,29.98,WSW,248,9.0,14.0,70,0.00,,---,0.01,VWS V14.00,2013-04-13 15:20:00,
2013-04-13 11:28:00,39.2,30.6,29.98,WSW,240,3.0,14.0,71,0.00,,---,0.01,VWS V14.00,2013-04-13 15:28:00,
2013-04-13 11:36:00,39.5,30.9,29.98,WSW,241,5.0,13.0,71,0.00,,---,0.01,VWS V14.00,2013-04-13 15:36:00,
2013-04-13 11:44:00,39.7,30.7,29.99,SW,219,11.0,14.0,70,0.00,,---,0.01,VWS V14.00,2013-04-13 15:44:00,
2013-04-13 11:53:00,39.7,30.7,29.99,WSW,238,4.0,14.0,70,0.00,,---,0.01,VWS V14.00,2013-04-13 15:53:00,
2013-04-13 12:00:00,39.9,30.6,29.99,West,277,6.0,14.0,69,0.00,,---,0.01,VWS V14.00,2013-04-13 16:00:00,
2013-04-13 12:09:00,40.1,31.1,29.99,West,265,3.0,10.0,70,0.00,,---,0.01,VWS V14.00,2013-04-13 16:09:00,
2013-04-13 12:25:00,40.2,30.9,29.99,SSW,213,7.0,13.0,69,0.00,,---,0.01,VWS V14.00,2013-04-13 16:25:00,
2013-04-13 12:30:00,40.1,30.8,29.99,West,267,4.0,13.0,69,0.00,,---,0.01,VWS V14.00,2013-04-13 16:30:00,
2013-04-13 12:49:00,40.0,31.4,29.99,West,263,2.0,14.0,71,0.00,,---,0.01,VWS V14.00,2013-04-13 16:49:00,
2013-04-13 12:57:00,40.1,31.5,29.99,WNW,288,6.0,14.0,71,0.00,,---,0.01,VWS V14.00,2013-04-13 16:57:00,
2013-04-13 13:05:00,40.0,31.0,29.99,WSW,242,3.0,9.0,70,0.00,,---,0.01,VWS V14.00,2013-04-13 17:05:00,
2013-04-13 13:13:00,41.0,32.0,29.98,SSW,203,3.0,12.0,70,0.00,,---,0.01,VWS V14.00,2013-04-13 17:13:00,
2013-04-13 13:21:00,42.0,31.9,29.97,NW,320,6.0,17.0,67,0.00,,---,0.01,VWS V14.00,2013-04-13 17:21:00,
2013-04-13 13:29:00,42.2,31.7,29.98,West,265,4.0,17.0,66,0.00,,---,0.01,VWS V14.00,2013-04-13 17:29:00,
2013-04-13 13:37:00,41.6,31.5,29.98,SSW,199,5.0,15.0,67,0.00,,---,0.01,VWS V14.00,2013-04-13 17:37:00,
2013-04-13 13:45:00,41.5,31.4,29.98,SW,232,6.0,15.0,67,0.00,,---,0.01,VWS V14.00,2013-04-13 17:45:00,
2013-04-13 13:54:00,41.4,31.6,29.98,SW,217,4.0,15.0,68,0.00,,---,0.01,VWS V14.00,2013-04-13 17:54:00,
2013-04-13 14:02:00,41.6,31.8,29.98,SSW,208,7.0,16.0,68,0.00,,---,0.01,VWS V14.00,2013-04-13 18:02:00,
2013-04-13 14:10:00,41.6,31.5,29.98,SW,219,13.0,16.0,67,0.00,,---,0.01,VWS V14.00,2013-04-13 18:10:00,
2013-04-13 14:18:00,41.5,31.7,29.98,SW,222,4.0,16.0,68,0.00,,---,0.01,VWS V14.00,2013-04-13 18:18:00,
2013-04-13 14:30:00,41.4,31.6,29.98,WSW,252,7.0,18.0,68,0.00,,---,0.01,VWS V14.00,2013-04-13 18:30:00,
2013-04-13 14:34:00,41.4,31.6,29.98,SW,232,5.0,11.0,68,0.00,,---,0.01,VWS V14.00,2013-04-13 18:34:00,
2013-04-13 14:42:00,41.4,32.0,29.98,West,279,3.0,11.0,69,0.00,,---,0.01,VWS V14.00,2013-04-13 18:42:00,
2013-04-13 14:50:00,41.3,32.3,29.98,WNW,290,3.0,13.0,70,0.00,,---,0.01,VWS V14.00,2013-04-13 18:50:00,
2013-04-13 14:58:00,41.3,32.6,29.98,West,268,2.0,13.0,71,0.00,,---,0.01,VWS V14.00,2013-04-13 18:58:00,
2013-04-13 15:06:00,41.1,32.4,29.99,SW,221,7.0,18.0,71,0.00,,---,0.01,VWS V14.00,2013-04-13 19:06:00,
2013-04-13 15:14:00,41.1,33.1,29.99,West,277,10.0,18.0,73,0.00,,---,0.01,VWS V14.00,2013-04-13 19:14:00,
2013-04-13 15:22:00,41.3,33.7,29.99,West,267,1.0,18.0,74,0.00,,---,0.01,VWS V14.00,2013-04-13 19:22:00,
2013-04-13 15:30:00,41.2,33.2,29.99,WNW,303,2.0,18.0,73,0.00,,---,0.01,VWS V14.00,2013-04-13 19:30:00,
2013-04-13 15:38:00,40.7,33.7,29.98,West,277,6.0,11.0,76,0.00,,---,0.01,VWS V14.00,2013-04-13 19:38:00,
2013-04-13 15:46:00,40.6,34.3,29.99,West,263,2.0,11.0,78,0.00,,---,0.01,VWS V14.00,2013-04-13 19:46:00,
2013-04-13 15:54:00,40.9,34.6,29.98,WSW,248,7.0,11.0,78,0.00,,---,0.01,VWS V14.00,2013-04-13 19:54:00,
2013-04-13 16:00:00,41.0,34.3,29.98,SW,230,5.0,11.0,77,0.00,,---,0.01,VWS V14.00,2013-04-13 20:00:00,
2013-04-13 16:10:00,41.2,34.5,29.98,NW,316,4.0,13.0,77,0.00,,---,0.01,VWS V14.00,2013-04-13 20:10:00,
2013-04-13 16:18:00,41.4,34.7,29.98,SW,221,2.0,13.0,77,0.00,,---,0.01,VWS V14.00,2013-04-13 20:18:00,
2013-04-13 16:26:00,41.4,34.7,29.98,SSW,213,5.0,13.0,77,0.00,,---,0.01,VWS V14.00,2013-04-13 20:26:00,
2013-04-13 16:34:00,41.0,35.0,29.99,WNW,294,6.0,14.0,79,0.00,,---,0.01,VWS V14.00,2013-04-13 20:34:00,
2013-04-13 16:42:00,38.7,34.3,29.99,North,11,2.0,14.0,84,0.00,,---,0.01,VWS V14.00,2013-04-13 20:42:00,
2013-04-13 16:50:00,37.7,33.9,29.99,West,281,3.0,14.0,86,0.00,,---,0.01,VWS V14.00,2013-04-13 20:50:00,
2013-04-13 16:58:00,38.3,35.1,29.99,West,276,3.0,14.0,88,0.00,,---,0.01,VWS V14.00,2013-04-13 20:58:00,
2013-04-13 17:06:00,38.0,34.5,30.00,NW,304,5.0,8.0,87,0.00,,---,0.01,VWS V14.00,2013-04-13 21:06:00,
2013-04-13 17:14:00,37.8,34.6,30.01,NW,304,3.0,8.0,88,0.01,,---,0.02,VWS V14.00,2013-04-13 21:14:00,
2013-04-13 17:23:00,36.7,33.5,30.00,West,275,3.0,10.0,88,0.02,,---,0.03,VWS V14.00,2013-04-13 21:23:00,
2013-04-13 17:30:00,37.0,34.3,30.01,WNW,284,1.0,10.0,90,0.02,,---,0.03,VWS V14.00,2013-04-13 21:30:00,
2013-04-13 17:39:00,37.2,34.5,30.01,WNW,288,3.0,6.0,90,0.02,,---,0.03,VWS V14.00,2013-04-13 21:39:00,
2013-04-13 17:47:00,37.1,34.4,30.01,WNW,298,5.0,10.0,90,0.03,,---,0.04,VWS V14.00,2013-04-13 21:47:00,
2013-04-13 17:55:00,36.9,34.2,30.02,WNW,302,7.0,10.0,90,0.03,,---,0.04,VWS V14.00,2013-04-13 21:55:00,
2013-04-13 18:00:00,36.8,34.2,30.02,WNW,290,4.0,10.0,90,0.03,,---,0.04,VWS V14.00,2013-04-13 22:00:00,
2013-04-13 18:11:00,36.7,34.0,30.02,West,281,1.0,7.0,90,0.04,,---,0.05,VWS V14.00,2013-04-13 22:11:00,
2013-04-13 18:19:00,36.3,33.7,30.03,NW,311,5.0,12.0,90,0.04,,---,0.05,VWS V14.00,2013-04-13 22:19:00,
2013-04-13 18:27:00,36.0,33.4,30.03,West,263,5.0,12.0,90,0.05,,---,0.06,VWS V14.00,2013-04-13 22:27:00,
2013-04-13 18:35:00,36.2,33.8,30.03,WSW,252,2.0,6.0,91,0.03,,---,0.06,VWS V14.00,2013-04-13 22:35:00,
2013-04-13 18:43:00,36.4,34.0,30.03,SW,232,2.0,6.0,91,0.03,,---,0.06,VWS V14.00,2013-04-13 22:43:00,
2013-04-13 18:51:00,36.4,34.0,30.03,WNW,285,2.0,6.0,91,0.03,,---,0.06,VWS V14.00,2013-04-13 22:51:00,
2013-04-13 18:59:00,36.5,34.1,30.03,WNW,284,0.0,6.0,91,0.03,,---,0.06,VWS V14.00,2013-04-13 22:59:00,
2013-04-13 19:07:00,36.6,34.2,30.03,WNW,284,4.0,5.0,91,0.02,,---,0.06,VWS V14.00,2013-04-13 23:07:00,
2013-04-13 19:15:00,36.8,34.4,30.03,WSW,258,0.0,5.0,91,0.02,,---,0.06,VWS V14.00,2013-04-13 23:15:00,
2013-04-13 19:23:00,37.0,34.6,30.03,WSW,258,3.0,5.0,91,0.02,,---,0.06,VWS V14.00,2013-04-13 23:23:00,
2013-04-13 19:30:00,36.8,34.2,30.04,WNW,297,3.0,9.0,90,0.02,,---,0.06,VWS V14.00,2013-04-13 23:30:00,
2013-04-13 19:39:00,35.5,32.9,30.04,NW,304,2.0,6.0,90,0.00,,---,0.06,VWS V14.00,2013-04-13 23:39:00,
2013-04-13 19:47:00,35.3,32.9,30.04,WNW,288,4.0,6.0,91,0.00,,---,0.06,VWS V14.00,2013-04-13 23:47:00,
2013-04-13 19:55:00,35.3,32.9,30.04,WSW,244,3.0,7.0,91,0.01,,---,0.07,VWS V14.00,2013-04-13 23:55:00,
2013-04-13 20:00:00,35.3,32.9,30.04,WNW,298,4.0,7.0,91,0.01,,---,0.07,VWS V14.00,2013-04-14 00:00:00,
2013-04-13 20:11:00,35.4,33.0,30.04,WNW,298,0.0,4.0,91,0.01,,---,0.07,VWS V14.00,2013-04-14 00:11:00,
2013-04-13 20:19:00,35.4,33.0,30.04,WNW,298,2.0,4.0,91,0.01,,---,0.07,VWS V14.00,2013-04-14 00:19:00,
2013-04-13 20:27:00,35.3,32.9,30.05,WNW,298,0.0,4.0,91,0.01,,---,0.07,VWS V14.00,2013-04-14 00:27:00,
2013-04-13 20:35:00,35.4,33.0,30.05,WNW,294,2.0,4.0,91,0.02,,---,0.08,VWS V14.00,2013-04-14 00:35:00,
2013-04-13 20:43:00,35.3,32.9,30.06,WNW,283,0.0,4.0,91,0.02,,---,0.08,VWS V14.00,2013-04-14 00:43:00,
2013-04-13 20:51:00,35.1,32.7,30.06,WNW,298,6.0,6.0,91,0.03,,---,0.09,VWS V14.00,2013-04-14 00:51:00,
2013-04-13 20:59:00,34.8,32.5,30.07,West,266,4.0,8.0,91,0.04,,---,0.10,VWS V14.00,2013-04-14 00:59:00,
2013-04-13 21:07:00,34.8,32.7,30.07,WNW,293,1.0,10.0,92,0.03,,---,0.10,VWS V14.00,2013-04-14 01:07:00,
2013-04-13 21:15:00,34.9,32.5,30.07,WNW,282,4.0,10.0,91,0.03,,---,0.10,VWS V14.00,2013-04-14 01:15:00,
2013-04-13 21:23:00,34.8,32.5,30.07,NW,314,11.0,13.0,91,0.03,,---,0.10,VWS V14.00,2013-04-14 01:23:00,
2013-04-13 21:30:00,34.8,32.5,30.07,WSW,238,2.0,13.0,91,0.03,,---,0.10,VWS V14.00,2013-04-14 01:30:00,
2013-04-13 21:39:00,34.8,32.5,30.07,WNW,292,3.0,11.0,91,0.02,,---,0.10,VWS V14.00,2013-04-14 01:39:00,
2013-04-13 21:47:00,34.7,32.1,30.08,West,263,2.0,11.0,90,0.02,,---,0.10,VWS V14.00,2013-04-14 01:47:00,
2013-04-13 21:55:00,34.7,32.1,30.08,WNW,298,4.0,13.0,90,0.02,,---,0.10,VWS V14.00,2013-04-14 01:55:00,
2013-04-13 22:03:00,34.6,31.7,30.08,NW,304,5.0,11.0,89,0.00,,---,0.10,VWS V14.00,2013-04-14 02:03:00,
2013-04-13 22:11:00,34.6,31.7,30.08,WNW,299,4.0,12.0,89,0.00,,---,0.10,VWS V14.00,2013-04-14 02:11:00,
2013-04-13 22:19:00,34.6,31.7,30.08,WSW,244,3.0,12.0,89,0.00,,---,0.10,VWS V14.00,2013-04-14 02:19:00,
2013-04-13 22:27:00,34.6,31.4,30.08,NW,307,5.0,13.0,88,0.00,,---,0.10,VWS V14.00,2013-04-14 02:27:00,
2013-04-13 22:36:00,34.6,31.4,30.09,SW,222,5.0,5.0,88,0.00,,---,0.10,VWS V14.00,2013-04-14 02:36:00,
2013-04-13 22:44:00,34.6,31.4,30.09,WNW,288,4.0,14.0,88,0.01,,---,0.11,VWS V14.00,2013-04-14 02:44:00,
2013-04-13 22:52:00,34.5,31.3,30.09,WNW,286,5.0,14.0,88,0.01,,---,0.11,VWS V14.00,2013-04-14 02:52:00,
2013-04-13 23:00:00,34.4,30.9,30.09,WNW,283,8.0,14.0,87,0.01,,---,0.11,VWS V14.00,2013-04-14 03:00:00,
2013-04-13 23:08:00,34.3,30.8,30.09,WNW,299,3.0,8.0,87,0.01,,---,0.11,VWS V14.00,2013-04-14 03:08:00,
2013-04-13 23:16:00,34.3,30.8,30.09,West,278,4.0,12.0,87,0.01,,---,0.11,VWS V14.00,2013-04-14 03:16:00,
2013-04-13 23:24:00,34.3,30.8,30.09,West,269,4.0,12.0,87,0.01,,---,0.11,VWS V14.00,2013-04-14 03:24:00,
2013-04-13 23:30:00,34.3,30.6,30.09,West,271,5.0,12.0,86,0.01,,---,0.11,VWS V14.00,2013-04-14 03:30:00,
2013-04-13 23:40:00,34.4,30.6,30.09,WSW,238,5.0,12.0,86,0.01,,---,0.11,VWS V14.00,2013-04-14 03:40:00,
2013-04-13 23:48:00,34.3,30.6,30.09,West,265,1.0,12.0,86,0.01,,---,0.11,VWS V14.00,2013-04-14 03:48:00,
2013-04-13 23:56:00,34.3,30.6,30.10,WSW,258,5.0,12.0,86,0.01,,---,0.11,VWS V14.00,2013-04-14 03:56:00,